User: anonymous   Login
Location: ?
(35.4996°N, 139.3166°E)
Time: 12:46:18
(UTC+00:00)
Language:

Cosmos 1484 Rocket - Orbit

View from above orbital plane
View from above orbital plane
View from above satellite
View from above satellite

Ground track
Ground track

The orbit data is extracted from the following two-line orbital elements,

1 14208U 83075B   24167.93697136  .00007966  00000-0  35208-3 0  9991
2 14208  97.5683 147.2257 0029340 304.8775  54.9703 15.21598091233541
Epoch (UTC): 15 June 2024 22:29:14
Eccentricity: 0.0029340
inclination: 97.5683°
perigee height: 481 km
apogee height: 521 km
right ascension of ascending node: 147.2257°
argument of perigee: 304.8775°
revolutions per day: 15.21598091
mean anomaly at epoch: 54.9703°
orbit number at epoch: 23354

The dashed part of the orbit path shows where the satellite is in the earth's shadow,  

DLR